• Join FlightAware (Why Join?)
  • Login
  • US Flag 
03:38AM EDT


 

Airport Tracker/Info


-or-


 

Live Flight TrackerFlight Track Log ✈ SKQ225 ✈ 27-Apr-2013 ✈ KOSU - KSDF

Flight Track Log - Related Links

Times and Time Zones

All times are in EDT time to prevent confusion due to time zone crossing. See the SKQ225 flight status page for this flight to view local times or setup timezone preferences in your user account.

Time Position Orientation Groundspeed Altitude Reporting Facility
EDT Latitude Longitude Course Direction KTS MPH feet Rate Location/Type
01:28AM 40.0258 -83.2122 228° Southwest 144 166 4,500  Level Indianapolis Center
01:29AM 39.9908 -83.2625 228° Southwest 164 189 5,300 660 Climbing Indianapolis Center
01:31AM 39.9581 -83.3106 228° Southwest 164 189 6,000 300 Climbing Indianapolis Center
01:32AM 39.9211 -83.3578 224° Southwest 192 221 6,000  Level Indianapolis Center
01:33AM 39.8861 -83.4106 229° Southwest 190 219 6,000  Level Indianapolis Center
01:34AM 39.8511 -83.4606 228° Southwest 189 217 6,000  Level Indianapolis Center
01:35AM 39.8136 -83.5131 227° Southwest 204 235 6,000  Level Indianapolis Center
01:36AM 39.7806 -83.5589 227° Southwest 190 219 6,000  Level Indianapolis Center
01:37AM 39.7444 -83.6097 227° Southwest 190 219 6,000  Level Indianapolis Center
01:38AM 39.7061 -83.6653 228° Southwest 187 215 6,000  Level Indianapolis Center
01:39AM 39.6711 -83.7125 226° Southwest 186 214 6,000  Level Indianapolis Center
01:40AM 39.6367 -83.7603 227° Southwest 189 217 6,000  Level Indianapolis Center
01:41AM 39.6003 -83.8111 227° Southwest 190 219 6,000  Level Indianapolis Center
01:42AM 39.5642 -83.8611 227° Southwest 189 217 6,000  Level Indianapolis Center
01:43AM 39.5275 -83.9119 227° Southwest 191 220 6,000  Level Indianapolis Center
01:44AM 39.4908 -83.9631 227° Southwest 191 220 6,000  Level Indianapolis Center
01:45AM 39.4547 -84.0131 227° Southwest 190 219 6,000  Level Indianapolis Center
01:46AM 39.4186 -84.0636 227° Southwest 189 217 6,000  Level Indianapolis Center
01:47AM 39.3881 -84.1056 227° Southwest 190 219 6,000  Level Indianapolis Center
01:48AM 39.3517 -84.1556 227° Southwest 190 219 6,000  Level Indianapolis Center
01:49AM 39.3153 -84.2056 227° Southwest 190 219 6,000  Level Indianapolis Center
01:50AM 39.2781 -84.2553 226° Southwest 190 219 6,000  Level Indianapolis Center
01:51AM 39.2422 -84.3069 228° Southwest 191 220 6,000  Level Indianapolis Center
01:52AM 39.2061 -84.3572 227° Southwest 191 220 6,000  Level Indianapolis Center
01:53AM 39.1689 -84.4069 226° Southwest 190 219 6,000  Level Indianapolis Center
01:54AM 39.1322 -84.4572 227° Southwest 191 220 6,000  Level Indianapolis Center
01:54AM 39.1000 -84.5000 226° Southwest 188 216 6,000  Level Cincinnati TRACON
01:55AM 39.0667 -84.5500 229° Southwest 186 214 6,000  Level Cincinnati TRACON
01:56AM 39.0333 -84.5833 218° Southwest 187 215 6,000  Level Cincinnati TRACON
01:57AM 39.0000 -84.6333 229° Southwest 184 212 6,000  Level Cincinnati TRACON
01:58AM 38.9667 -84.6833 229° Southwest 180 207 6,000  Level Cincinnati TRACON
01:59AM 38.9333 -84.7333 229° Southwest 181 208 6,000  Level Cincinnati TRACON
02:00AM 38.9000 -84.7833 229° Southwest 180 207 6,000  Level Cincinnati TRACON
02:01AM 38.8667 -84.8167 218° Southwest 180 207 6,000  Level Cincinnati TRACON
02:02AM 38.8528 -84.8350 226° Southwest 178 205 6,000  Level Indianapolis Center
02:03AM 38.8169 -84.8831 226° Southwest 184 212 6,000  Level Indianapolis Center
02:04AM 38.7828 -84.9297 227° Southwest 183 211 6,000  Level Indianapolis Center
02:05AM 38.7483 -84.9756 226° Southwest 179 206 6,000  Level Indianapolis Center
02:06AM 38.7128 -85.0214 225° Southwest 178 205 6,000  Level Indianapolis Center
02:07AM 38.6800 -85.0675 228° Southwest 177 204 6,000  Level Indianapolis Center
02:08AM 38.6458 -85.1125 226° Southwest 175 201 6,000  Level Indianapolis Center
02:09AM 38.6106 -85.1603 227° Southwest 181 208 6,000  Level Indianapolis Center
02:10AM 38.5722 -85.2114 226° Southwest 178 205 6,000  Level Indianapolis Center
02:11AM 38.5381 -85.2564 226° Southwest 176 203 6,000  Level Indianapolis Center
02:12AM 38.5028 -85.3031 226° Southwest 179 206 6,000  Level Indianapolis Center
02:13AM 38.4761 -85.3389 226° Southwest 177 204 6,000  Level Indianapolis Center
02:14AM 38.4422 -85.3839 226° Southwest 177 204 6,000  Level Indianapolis Center
02:15AM 38.4092 -85.4275 226° Southwest 171 197 6,000 -300 Level Indianapolis Center
02:16AM 38.3714 -85.4653 218° Southwest 175 201 5,500 -660 Descending Indianapolis Center
02:17AM 38.3231 -85.4919 203° Southwest 184 212 4,700 -720 Descending Indianapolis Center
02:18AM 38.2764 -85.5208 206° Southwest 185 213 4,100 -600 Descending Indianapolis Center
02:19AM 38.2319 -85.5500 207° Southwest 184 212 3,500 -600 Descending Indianapolis Center
02:20AM 38.1889 -85.5817 210° Southwest 182 209 3,000 -300 Descending Indianapolis Center
02:21AM 38.1367 -85.6203 210° Southwest 182 209 3,000  Level Indianapolis Center
02:23AM 38.1604 -85.6940 230° Southwest  Level Estimated
02:30AM 38.1667 -85.7333 230° Southwest  Level FlightAware Approximate
02:31AM 38.1741 -85.7365 230° Southwest  Level Estimated